* Astronomy

Members Login
Post Info TOPIC: Comet P/2005 JY126 = 2012 F4 (CATALINA)


L

Posts: 130256
Date:
RE: Comet P/2005 JY126 = 2012 F4 (CATALINA)
Permalink  
 


Comet 257P/Catalina is at Opposition (4.171 AU) on the 25th January 2016



__________________


L

Posts: 130256
Date:
Comet 257P/Catalina
Permalink  
 


Comet 257P/Catalina is at Opposition (1.335 AU) on the 5th October 2013



__________________


L

Posts: 130256
Date:
Permalink  
 

Comet 257P/Catalina makes its closest approach to the Earth (1.315 AU) on the 22nd September 2013



__________________


L

Posts: 130256
Date:
Permalink  
 

Comet 257P/Catalina is at Perihelion (2.129 AU) on the 4th June 2013.

Ephemeris

Date    TT    R. A. (2000) Decl.     Delta      r     Elong.  Phase   Mag
2013 06 03    23 15 15.1 +14 54 20   2.1085  2.1291    77.3    27.7  16.4
2013 06 04    23 16 50.7 +15 05 57   2.0991  2.1290    77.8    27.8  16.4
2013 06 05    23 18 25.8 +15 17 29   2.0898  2.1290    78.2    27.8  16.4
2013 06 06    23 20 00.3 +15 28 56   2.0805  2.1291    78.7    27.9  16.4
2013 06 07    23 21 34.1 +15 40 18   2.0711  2.1291    79.2    27.9  16.4
2013 06 08    23 23 07.4 +15 51 35   2.0618  2.1292    79.7    28.0  16.4
2013 06 09    23 24 40.0 +16 02 47   2.0524  2.1293    80.2    28.0  16.3
2013 06 10    23 26 12.0 +16 13 52   2.0431  2.1295    80.7    28.1  16.3
2013 06 11    23 27 43.3 +16 24 52   2.0337  2.1296    81.2    28.1  16.3
2013 06 12    23 29 14.0 +16 35 46   2.0244  2.1298    81.7    28.2  16.3
2013 06 13    23 30 44.0 +16 46 34   2.0151  2.1301    82.2    28.2  16.3
2013 06 14    23 32 13.3 +16 57 16   2.0057  2.1303    82.7    28.2  16.3
2013 06 15    23 33 42.0 +17 07 52   1.9964  2.1306    83.2    28.3  16.3
2013 06 16    23 35 09.9 +17 18 21   1.9870  2.1309    83.8    28.3  16.3
2013 06 17    23 36 37.1 +17 28 43   1.9777  2.1313    84.3    28.3  16.3
2013 06 18    23 38 03.6 +17 38 58   1.9684  2.1316    84.8    28.3  16.3
2013 06 19    23 39 29.3 +17 49 07   1.9591  2.1320    85.3    28.4  16.2
2013 06 20    23 40 54.3 +17 59 08   1.9498  2.1325    85.8    28.4  16.2
2013 06 21    23 42 18.6 +18 09 03   1.9405  2.1329    86.4    28.4  16.2
2013 06 22    23 43 42.0 +18 18 49   1.9312  2.1334    86.9    28.4  16.2
2013 06 23    23 45 04.7 +18 28 28   1.9219  2.1339    87.5    28.4  16.2
2013 06 24    23 46 26.6 +18 38 00   1.9126  2.1344    88.0    28.4  16.2
2013 06 25    23 47 47.7 +18 47 24   1.9033  2.1350    88.6    28.4  16.2
2013 06 26    23 49 07.9 +18 56 39   1.8941  2.1356    89.1    28.4  16.2
2013 06 27    23 50 27.3 +19 05 47   1.8848  2.1362    89.7    28.4  16.2
2013 06 28    23 51 45.8 +19 14 46   1.8756  2.1369    90.2    28.4  16.2
2013 06 29    23 53 03.5 +19 23 37   1.8663  2.1375    90.8    28.4  16.2
2013 06 30    23 54 20.2 +19 32 19   1.8571  2.1382    91.4    28.4  16.1


__________________


L

Posts: 130256
Date:
Comet P/2005 JY126 = 2012 F4 (CATALINA)
Permalink  
 


Orbital elements:
    P/2005 JY126 = 2012 F4 (Catalina)
Epoch 2013 May 28.0 TT = JDT 2456440.5
T 2013 June 4.43213 TT                                  MPC
q   2.1290405            (2000.0)            P               Q
n   0.13553700     Peri.  117.81293     +0.80036565     +0.57728080
a   3.7534515      Node   207.86756     -0.59470770     +0.79859791
e   0.4327779      Incl.   20.24484     +0.07574677     +0.17025939
P   7.27
From 246 observations 2005 Apr. 17-2012 Mar. 22

MPEC 2012 - F54



__________________
Page 1 of 1  sorted by
 
Quick Reply

Please log in to post quick replies.



Create your own FREE Forum
Report Abuse
Powered by ActiveBoard